Falfurrias, TX

4:11 AM CST on December 15, 2019 (GMT -0600)
Falfurrias

Weather History for KBKS - April, 2019

Change the Weather History Date:

Tuesday, April 30, 2019

  Actual Average (KNQI) Record (KNQI)
Temperature  
Mean Temperature 84 °F -  
Max Temperature 94 °F 84 °F 98 °F (2002)
Min Temperature 73 °F 66 °F 53 °F (1998)
Cooling Degree Days 18    
Growing Degree Days 34 (Base 50)    
Moisture  
Dew Point 70 °F    
Average Humidity 68    
Maximum Humidity 91    
Minimum Humidity 36    
Precipitation  
Precipitation 0.00 in - - ()
Sea Level Pressure  
Sea Level Pressure 29.83 in    
Wind  
Wind Speed 12 mph (SE)    
Max Wind Speed 26 mph    
Max Gust Speed 34 mph    
Visibility 9 miles    
Events      
Averages and records for this station are not official NWS values.
T = Trace of Precipitation, MM = Missing Value Source: NWS Daily Summary

Daily Weather History Graph

Daily Weather History Graph

Search for Another Location

Airport or City:

Astronomy

Apr. 30, 2019 Rise Set
Actual Time 6:54 AM CDT 8:05 PM CDT
Civil Twilight 6:30 AM CDT 8:29 PM CDT
Nautical Twilight 6:01 AM CDT 8:58 PM CDT
Astronomical Twilight 5:31 AM CDT 9:28 PM CDT
Moon 4:39 AM CDT (4/30) 4:27 PM CDT (4/30)
Length of Visible Light 13h 59m
Length of Day
13h 10m
Waning Crescent, 17% of the Moon is Illuminated
Apr 30
Waning Crescent
May 4
New
May 11
First Quarter
May 18
Full
May 26
Last Quarter

Hourly Weather History & Observations

Time (CDT) Temp. Heat Index Dew Point Humidity Pressure Visibility Wind Dir Wind Speed Gust Speed Precip Events Conditions
12:15 AM 75.7 °F - 71.6 °F 87% 29.89 in 7.0 mi East 5.8 mph - N/A   Mostly Cloudy
12:35 AM 75.4 °F - 71.4 °F 87% 29.88 in 7.0 mi ESE 5.8 mph - N/A   Scattered Clouds
12:55 AM 74.8 °F - 71.1 °F 88% 29.88 in 7.0 mi ESE 5.8 mph - N/A   Scattered Clouds
1:15 AM 74.5 °F - 71.1 °F 89% 29.88 in 7.0 mi ESE 3.5 mph - N/A   Scattered Clouds
1:35 AM 74.3 °F - 70.9 °F 89% 29.87 in 7.0 mi ESE 3.5 mph - N/A   Scattered Clouds
1:55 AM 73.9 °F - 70.9 °F 90% 29.86 in 7.0 mi East 4.6 mph - N/A   Scattered Clouds
2:15 AM 73.9 °F - 71.1 °F 91% 29.86 in 5.0 mi ESE 4.6 mph - N/A   Scattered Clouds
2:35 AM 74.3 °F - 71.6 °F 91% 29.85 in 7.0 mi ESE 4.6 mph - N/A   Mostly Cloudy
2:55 AM 74.8 °F - 71.8 °F 90% 29.85 in 7.0 mi ESE 5.8 mph - N/A   Overcast
3:15 AM 75.4 °F - 72.1 °F 90% 29.84 in 7.0 mi ESE 6.9 mph - N/A   Overcast
3:35 AM 75.7 °F - 72.5 °F 90% 29.83 in 7.0 mi ESE 8.1 mph - N/A   Mostly Cloudy
3:55 AM 76.1 °F - 72.5 °F 89% 29.83 in 7.0 mi ESE 6.9 mph - N/A   Overcast
4:15 AM 76.3 °F - 72.5 °F 88% 29.82 in 7.0 mi ESE 8.1 mph - N/A   Overcast
4:35 AM 76.5 °F - 72.5 °F 87% 29.82 in 7.0 mi ESE 8.1 mph - N/A   Mostly Cloudy
4:55 AM 76.5 °F - 72.5 °F 87% 29.81 in 7.0 mi ESE 9.2 mph - N/A   Overcast
5:15 AM 76.6 °F - 72.7 °F 87% 29.82 in 7.0 mi ESE 6.9 mph - N/A   Overcast
5:35 AM 77.0 °F - 72.5 °F 86% 29.82 in 7.0 mi ESE 8.1 mph - N/A   Overcast
5:55 AM 77.2 °F - 72.5 °F 85% 29.82 in 7.0 mi ESE 6.9 mph - N/A   Overcast
6:15 AM 77.5 °F - 72.5 °F 84% 29.82 in 7.0 mi ESE 10.4 mph - N/A   Overcast
6:35 AM 77.9 °F - 72.0 °F 82% 29.82 in 7.0 mi SE 11.5 mph 19.6 mph N/A   Overcast
6:55 AM 77.5 °F - 72.0 °F 83% 29.83 in 7.0 mi SE 10.4 mph 19.6 mph N/A   Mostly Cloudy
7:15 AM 77.5 °F - 72.0 °F 83% 29.83 in 7.0 mi ESE 13.8 mph 20.7 mph N/A   Overcast
7:35 AM 77.9 °F - 71.2 °F 80% 29.84 in 7.0 mi SE 17.3 mph 23.0 mph N/A   Overcast
7:55 AM 77.9 °F - 70.9 °F 79% 29.85 in 7.0 mi SE 16.1 mph 21.9 mph N/A   Overcast
8:15 AM 77.9 °F - 70.7 °F 78% 29.85 in 7.0 mi SE 13.8 mph 19.6 mph N/A   Overcast
8:35 AM 78.6 °F - 70.3 °F 76% 29.86 in 10.0 mi SE 11.5 mph 19.6 mph N/A   Overcast
8:55 AM 79.2 °F - 70.0 °F 73% 29.86 in 10.0 mi SSE 17.3 mph 25.3 mph N/A   Overcast
9:15 AM 80.1 °F 83.2 °F 70.0 °F 71% 29.86 in 10.0 mi SE 16.1 mph 25.3 mph N/A   Overcast
9:35 AM 80.2 °F 83.3 °F 69.8 °F 70% 29.87 in 10.0 mi SSE 20.7 mph 24.2 mph N/A   Overcast
9:55 AM 81.0 °F 84.4 °F 69.8 °F 69% 29.88 in 10.0 mi SE 16.1 mph 25.3 mph N/A   Overcast
10:15 AM 81.7 °F 85.2 °F 69.6 °F 67% 29.88 in 10.0 mi SSE 18.4 mph 23.0 mph N/A   Overcast
10:35 AM 83.8 °F 87.5 °F 68.9 °F 61% 29.88 in 10.0 mi SSE 21.9 mph 29.9 mph N/A   Overcast
10:55 AM 84.7 °F 87.9 °F 68.2 °F 57% 29.88 in 10.0 mi SSE 23.0 mph 29.9 mph N/A   Overcast
11:15 AM 85.6 °F 89.4 °F 68.7 °F 57% 29.88 in 10.0 mi SSE 16.1 mph 28.8 mph N/A   Mostly Cloudy
11:35 AM 86.7 °F 91.0 °F 69.3 °F 56% 29.87 in 10.0 mi SSE 19.6 mph 25.3 mph N/A   Mostly Cloudy
11:55 AM 88.0 °F 91.8 °F 68.5 °F 52% 29.87 in 10.0 mi South 23.0 mph 28.8 mph N/A   Scattered Clouds
12:15 PM 88.7 °F 92.2 °F 68.0 °F 50% 29.86 in 10.0 mi SSE 19.6 mph 27.6 mph N/A   Scattered Clouds
12:35 PM 89.4 °F 92.7 °F 67.6 °F 48% 29.85 in 10.0 mi SSE 21.9 mph 33.4 mph N/A   Scattered Clouds
12:55 PM 91.2 °F 95.0 °F 67.6 °F 46% 29.83 in 10.0 mi SE 23.0 mph 31.1 mph N/A   Scattered Clouds
1:15 PM 91.0 °F 93.8 °F 66.0 °F 44% 29.83 in 10.0 mi SSE 25.3 mph 32.2 mph N/A   Scattered Clouds
1:35 PM 92.8 °F 95.6 °F 65.8 °F 41% 29.83 in 10.0 mi South 26.5 mph 31.1 mph N/A   Scattered Clouds
1:55 PM 91.9 °F 93.3 °F 63.7 °F 39% 29.82 in 10.0 mi SSE 23.0 mph 32.2 mph N/A   Scattered Clouds
2:15 PM 91.2 °F 92.5 °F 63.7 °F 40% 29.80 in 10.0 mi SSE 18.4 mph 29.9 mph N/A   Clear
2:35 PM 93.9 °F 95.2 °F 63.3 °F 36% 29.80 in 10.0 mi SSE 26.5 mph 34.5 mph N/A   Clear
2:55 PM 93.9 °F 96.1 °F 65.1 °F 38% 29.78 in 10.0 mi SE 19.6 mph 28.8 mph N/A   Clear
3:15 PM 94.1 °F 95.5 °F 63.5 °F 36% 29.79 in 10.0 mi South 25.3 mph 29.9 mph N/A   Clear
3:35 PM 92.8 °F 94.7 °F 64.4 °F 39% 29.78 in 10.0 mi SSE 21.9 mph 29.9 mph N/A   Clear
3:55 PM 91.9 °F 94.1 °F 64.9 °F 41% 29.78 in 10.0 mi SSE 18.4 mph 25.3 mph N/A   Clear
4:15 PM 91.4 °F 94.0 °F 66.2 °F 43% 29.77 in 10.0 mi SSE 20.7 mph 25.3 mph N/A   Clear
4:35 PM 90.5 °F 91.8 °F 63.9 °F 41% 29.77 in 10.0 mi South 21.9 mph 28.8 mph N/A   Clear
4:55 PM 89.2 °F 91.6 °F 65.8 °F 46% 29.76 in 10.0 mi SSE 16.1 mph 26.5 mph N/A   Clear
5:15 PM 88.7 °F 91.1 °F 66.4 °F 47% 29.76 in 10.0 mi SSE 20.7 mph 27.6 mph N/A   Clear
5:35 PM 88.3 °F 90.9 °F 66.6 °F 48% 29.77 in 10.0 mi SSE 19.6 mph 27.6 mph N/A   Clear
5:55 PM 87.8 °F 90.7 °F 67.3 °F 50% 29.77 in 10.0 mi SSE 18.4 mph 25.3 mph N/A   Clear
6:15 PM 87.6 °F 91.1 °F 68.2 °F 52% 29.77 in 10.0 mi SE 17.3 mph 23.0 mph N/A   Clear
6:35 PM 87.6 °F 91.9 °F 68.9 °F 54% 29.77 in 10.0 mi SE 16.1 mph 26.5 mph N/A   Clear
6:55 PM 86.0 °F 90.4 °F 69.8 °F 58% 29.77 in 10.0 mi SE 16.1 mph 20.7 mph N/A   Clear
7:15 PM 85.1 °F 89.4 °F 70.0 °F 60% 29.77 in 10.0 mi SE 13.8 mph 19.6 mph N/A   Clear
7:35 PM 84.6 °F 89.1 °F 70.2 °F 62% 29.78 in 10.0 mi SE 16.1 mph 19.6 mph N/A   Clear
7:55 PM 83.7 °F 88.3 °F 70.7 °F 65% 29.78 in 10.0 mi SE 15.0 mph 20.7 mph N/A   Clear
8:15 PM 82.9 °F 87.5 °F 70.9 °F 67% 29.78 in 10.0 mi SE 17.3 mph 21.9 mph N/A   Clear
8:35 PM 82.4 °F 86.7 °F 71.1 °F 68% 29.80 in 10.0 mi SE 9.2 mph - N/A   Clear
8:55 PM 81.7 °F 86.0 °F 71.6 °F 71% 29.81 in 10.0 mi SE 13.8 mph 18.4 mph N/A   Clear
9:15 PM 81.5 °F 85.9 °F 71.6 °F 72% 29.81 in 10.0 mi SE 13.8 mph 18.4 mph N/A   Scattered Clouds
9:35 PM 81.1 °F 85.4 °F 71.8 °F 73% 29.82 in 10.0 mi SE 13.8 mph - N/A   Scattered Clouds
9:55 PM 81.0 °F 85.2 °F 72.0 °F 74% 29.82 in 10.0 mi SE 12.7 mph 16.1 mph N/A   Mostly Cloudy
10:15 PM 80.8 °F 84.9 °F 72.0 °F 74% 29.83 in 7.0 mi SE 12.7 mph - N/A   Mostly Cloudy
10:35 PM 80.8 °F 84.9 °F 72.0 °F 74% 29.84 in 7.0 mi SE 11.5 mph - N/A   Overcast
10:55 PM 80.8 °F 84.9 °F 72.0 °F 74% 29.85 in 7.0 mi SSE 12.7 mph 21.9 mph N/A   Overcast
11:15 PM 80.2 °F 84.0 °F 71.8 °F 75% 29.84 in 10.0 mi SE 12.7 mph - N/A   Mostly Cloudy
11:35 PM 80.2 °F 84.0 °F 71.6 °F 75% 29.85 in 7.0 mi SSE 12.7 mph - N/A   Mostly Cloudy
11:55 PM 80.1 °F 83.7 °F 71.6 °F 75% 29.84 in 7.0 mi SE 12.7 mph - N/A   Mostly Cloudy